Regional Weather Roundup
Issued by NWS Goodland, KS

Home | Current Version | Previous Version | Text Only | Print | Product List | Glossary Off
Versions: 1 2 3 4 5 6 7 8 9 10 11 12 13 14 15 16 17 18 19 20 21 22 23 24 25 26 27 28 29 30 31 32 33 34 35 36 37 38 39 40 41 42 43 44 45 46 47 48 49 50

000
ASUS43 KGLD 022208
RWRGLD

GOODLAND FORECAST AREA HOURLY WEATHER ROUNDUP
NATIONAL WEATHER SERVICE GOODLAND KS
300 PM MST MON MAR 02 2015

...OFFICIAL OBSERVATIONS...

CITY           SKY/WX    TMP DP  RH WIND       PRES   REMARKS
GOODLAND KS    CLOUDY    30  26  85 S28G35    29.87F WCI  15
HILL CITY KS   CLOUDY    35  21  56 S16G25    30.03F
IMPERIAL NEB     N/A     31  21  66 S21       29.88F WCI  18
MCCOOK NEB     CLOUDY    36  21  54 S18G29    29.96F
AKRON CO       PTSUNNY   35  27  72 S21G26    29.73F
BURLINGTON CO  CLOUDY    32  27  81 S26G32    29.82F WCI  18
LIMON CO       CLOUDY    28  26  92 SE15      29.76F WCI  16
$$

...UNOFFICIAL OBSERVATIONS...

CITY           SKY/WX    TMP DP  RH WIND       PRES   REMARKS
COLBY KS       CLOUDY    30  28  93 S22G29    29.94F FOG     WCI  17
GOVE KS          N/A     32  32 100 MISG        N/A
LENORA KS        N/A     33  32  96 S17         N/A
NORTON KS      MOSUNNY   36  18  48 SE20G28   29.99F
SHARON SPRINGS   N/A     31  29  91 S24G31      N/A  WCI  18
TRIBUNE KS     CLOUDY    34  34 100 SE17      29.91
KIT CARSON CO    N/A     35  30  83 MISG        N/A
YUMA CO          N/A     32  25  76 SE13G22     N/A
$$



USA.gov is the U.S. government's official web portal to all federal, state and local government web resources and services.